Printer-friendly version
Follow the MPC on Twitter Follow the MPC on Facebook The MPC blog
Minor Planet Center

MPEC 2007-V34 : 2007 VW6

The following Minor Planet Electronic Circular may be linked-to from your own Web pages, but must not otherwise be redistributed electronically.

A form allowing access to any MPEC is at the bottom of this page.


Read MPEC 2007-V33 Read MPEC 2007-V35


M.P.E.C. 2007-V34                                Issued 2007 Nov. 5, 17:06 UT

     The Minor Planet Electronic Circulars contain information on unusual
         minor planets and routine data on comets.  They are published
   on behalf of Commission 20 of the International Astronomical Union by the
          Minor Planet Center, Smithsonian Astrophysical Observatory,
                          Cambridge, MA 02138, U.S.A.

             Prepared using the Tamkin Foundation Computer Network

                              MPC@CFA.HARVARD.EDU
          URL http://www.cfa.harvard.edu/iau/mpc.html  ISSN 1523-6714

                                   2007 VW6

Observations:
     K07V06W* C2007 11 03.41234 05 03 56.44 +11 26 47.1          20.1 V EV034G96
     K07V06W  C2007 11 03.42088 05 03 55.08 +11 25 48.4          20.6 V EV034G96
     K07V06W  C2007 11 03.42937 05 03 53.71 +11 24 48.8          20.1 V EV034G96
     K07V06W  C2007 11 03.43804 05 03 52.38 +11 23 48.1          20.5 V EV034G96
     K07V06W  C2007 11 03.47807 05 03 46.00 +11 19 07.2          20.9 V EV034G96
     K07V06W  C2007 11 03.48179 05 03 45.43 +11 18 40.8          20.7 V EV034G96
     K07V06W  C2007 11 03.48549 05 03 44.82 +11 18 15.2          20.9 V EV034G96
     K07V06W  C2007 11 03.48921 05 03 44.24 +11 17 49.0          20.5 V EV034G96
     K07V06W  C2007 11 04.37483 05 01 32.84 +09 34 53.8          20.8 V EV034G96
     K07V06W  C2007 11 04.37537 05 01 32.80 +09 34 50.3          20.7 V EV034G96
     K07V06W  C2007 11 04.38346 05 01 31.40 +09 33 52.9          20.2 V EV034G96
     K07V06W  C2007 11 04.40789 05 01 27.58 +09 31 04.8          20.3 V EV034G96
     K07V06W  C2007 11 04.41893 05 01 25.82 +09 29 47.9          20.5 V EV034G96
     K07V06W  C2007 11 04.41951 05 01 25.75 +09 29 43.8          20.3 V EV034G96
     K07V06W  C2007 11 04.42760 05 01 24.42 +09 28 47.9          21.1 V EV034G96
     K07V06W  C2007 11 04.42814 05 01 24.34 +09 28 44.0          20.6 V EV034G96
     K07V06W tC2007 11 05.26228 04 59 20.64 +07 52 52.9          20.6 V EV034291
     K07V06W tC2007 11 05.26601 04 59 20.04 +07 52 26.7          20.9 V EV034291
     K07V06W tC2007 11 05.26970 04 59 19.46 +07 52 03.0          20.7 V EV034291

Observer details:
291 LPL/Spacewatch II.  Observer T. H. Bressi.  1.8-m f/2.7 reflector + CCD.
G96 Mt. Lemmon Survey.  Observer A. Boattini.  Measurers E. C. Beshore,
    A. Boattini, G. J. Garradd, A. R. Gibbs, A. D. Grauer, R. E. Hill,
    R. A. Kowalski, S. M. Larson, R. H. McNaught.  1.5-m reflector + CCD.

Orbital elements:
2007 VW6                                                 Earth MOID = 0.2307 AU
Epoch 2007 Oct. 27.0 TT = JDT 2454400.5                 MPC
M  26.95249              (2000.0)            P               Q
n   0.45312581     Peri.  124.62883     +0.85328583     +0.26522433
a   1.6787661      Node   225.32162     -0.24757341     +0.96381400
e   0.3426157      Incl.   39.15216     +0.45892342     +0.02680743
P   2.18           H   21.3           G   0.15           U   9
Residuals in seconds of arc
071103 G96  0.2-  0.9-    071103 G96  0.4-  0.4+    071104 G96  0.4-  0.3+
071103 G96  0.3-  0.3+    071104 G96  0.4-  0.2+    071104 G96  0.3-  0.2+
071103 G96  0.6-  0.2+    071104 G96  0.3+  0.4+    071105 291  0.2-  0.1+
071103 G96  0.1+  0.3+    071104 G96  1.3-  0.9-    071105 291  0.4-  0.6-
071103 G96  0.4-  0.4+    071104 G96  0.2-  0.5+    071105 291  0.4-  0.9+
071103 G96  0.1-  0.1+    071104 G96  0.1-  0.2+
071103 G96  0.5-  0.4+    071104 G96  0.2+  0.1+

Ephemeris:
2007 VW6                 a,e,i = 1.68, 0.34, 39                  q = 1.1036
Date    TT    R. A. (2000) Decl.     Delta      r     Elong.  Phase     V
2007 11 06    04 57.48   +06 29.4    0.328    1.275   145.7    26.0    20.6
2007 11 07    04 54.97   +04 37.8    0.331    1.280   146.5    25.3    20.6
2007 11 08    04 52.47   +02 48.4    0.334    1.284   147.1    24.8    20.6
2007 11 09    04 49.97   +01 01.8    0.338    1.288   147.6    24.4    20.6
2007 11 10    04 47.48   -00 41.9    0.342    1.293   147.9    24.0    20.7
2007 11 11    04 45.00   -02 22.4    0.346    1.297   148.0    23.8    20.7
2007 11 12    04 42.54   -03 59.6    0.352    1.302   148.0    23.7    20.7
2007 11 13    04 40.10   -05 33.3    0.357    1.306   147.9    23.8    20.8
2007 11 14    04 37.69   -07 03.3    0.363    1.310   147.6    23.9    20.8
2007 11 15    04 35.30   -08 29.7    0.369    1.315   147.2    24.0    20.9
2007 11 16    04 32.95   -09 52.4    0.376    1.319   146.7    24.3    20.9
2007 11 17    04 30.63   -11 11.3    0.383    1.324   146.2    24.6    21.0
2007 11 18    04 28.35   -12 26.5    0.390    1.329   145.5    24.9    21.0
2007 11 19    04 26.11   -13 38.0    0.398    1.333   144.8    25.3    21.1
2007 11 20    04 23.92   -14 45.9    0.406    1.338   144.0    25.7    21.1
2007 11 21    04 21.77   -15 50.3    0.414    1.342   143.2    26.2    21.2
2007 11 22    04 19.67   -16 51.1    0.422    1.347   142.4    26.6    21.3
2007 11 23    04 17.62   -17 48.6    0.431    1.352   141.5    27.1    21.3
2007 11 24    04 15.62   -18 42.9    0.440    1.356   140.6    27.5    21.4
2007 11 25    04 13.67   -19 34.0    0.449    1.361   139.7    28.0    21.5
2007 11 26    04 11.78   -20 22.0    0.458    1.366   138.8    28.4    21.5

Timothy B. Spahr             (C) Copyright 2007 MPC           M.P.E.C. 2007-V34

Read MPEC 2007-V33 Read MPEC 2007-V35


MPEC number:

Enter an MPEC number in one of the following forms:

  • 1997-B01 (the full form)
  • J97B01 (the packed version of the full form)
  • B01 (the abbreviated form)

Valid HTML 4.01!